Location: CARMA
(37.2805°N, 118.1419°W)
Time: 22:07:33
(UTC-07:00)

Daily predictions for brighter satellites

Satellite Brightness Start Highest point End
(mag) Time Altitude Azimuth Time Altitude Azimuth Time Altitude Azimuth
Cosmos 883 Rocket 4.5 20:22:26 10° S 20:28:32 83° E 20:34:43 10° N
Cosmos 1538 Rocket 4.0 20:27:44 10° S 20:32:49 62° ESE 20:37:55 10° NNE
Okean 1 3.5 20:29:19 10° S 20:33:09 51° E 20:37:01 10° NNE
Cosmos 1455 Rocket 3.7 20:32:04 10° N 20:36:08 37° ENE 20:40:10 10° SSE
Cosmos 44 4.4 20:32:19 10° NW 20:36:17 36° WSW 20:40:18 10° S
Abrixas 3.3 20:34:05 10° WNW 20:36:40 36° SW 20:39:12 10° SSE
Cosmos 1975 3.4 20:33:30 10° N 20:37:20 39° E 20:41:10 10° SSE
Cosmos 405 Rocket 4.2 20:35:07 10° SE 20:37:46 19° E 20:40:28 10° NE
Tiangong 2 2.7 20:35:52 10° S 20:38:05 18° SE 20:40:18 10° E
DEBRIS 3.1 20:35:57 10° SSW 20:38:38 56° SE 20:45:42 10° NE
YAOGAN 6 4.0 20:39:53 10° ESE 20:42:36 21° ENE 20:45:20 10° NNE
Cosmos 2369 Rocket 2.6 20:37:22 10° NNW 20:42:59 65° WSW 20:48:36 10° S
Helios 1B rocket 2.5 20:39:00 10° NNE 20:43:04 56° E 20:47:07 10° S
NOSS 2-2 (E) 3.7 20:39:27 10° S 20:43:13 44° ESE 20:47:24 10° NE
ISS -1.6 20:43:00 10° SE 20:43:05 10° SE 20:43:05 10° SE
SAR-Lupe-4 4.1 20:40:54 10° SE 20:44:16 42° ENE 20:47:40 10° N
Meteor 1-29 3.2 20:45:03 10° NNE 20:48:19 46° E 20:51:34 10° S
Cosmos 1939 Rocket 3.1 20:45:33 10° SSE 20:49:16 48° ENE 20:53:01 10° N
Cosmos 1437 3.1 20:50:11 10° SSE 20:53:14 41° E 20:56:18 10° NNE
Cosmos 1500 3.1 20:51:29 10° N 20:55:16 80° E 20:59:01 10° S
COSMOS 2455 2.9 20:49:49 10° NNW 20:55:49 67° ENE 21:01:12 13° SE
Cosmos 1709 Rocket 4.1 20:51:33 10° N 20:57:51 84° W 21:04:02 10° S
OAO 2 Rocket 3.5 20:54:46 10° WSW 20:59:31 49° SSE 21:04:21 10° E
Cosmos 1818 3.5 20:55:17 10° SSW 21:00:42 84° ESE 21:06:11 10° NNE
SAR-Lupe-1 4.1 20:57:51 12° SSE 21:01:02 60° ENE 21:04:35 10° N
Cosmos 1943 Rocket 2.2 20:55:59 10° NNW 21:01:37 87° WSW 21:07:04 10° SSE
CZ-4B DEB 2.5 20:59:52 14° SSE 21:02:22 68° ENE 21:05:21 10° N
USA 186 3.3 20:59:27 10° SSW 21:02:28 35° W 21:05:27 10° NNW
ERS-1 Rocket 3.6 21:01:30 15° SE 21:05:17 40° ENE 21:09:58 10° N
Meteor 1-12 Rocket 4.4 20:59:57 10° N 21:06:00 87° W 21:11:58 10° S
H-2A R/B 3.9 21:04:42 10° E 21:07:08 14° ENE 21:09:35 10° NNE
COSMOS 2406 3.4 21:02:25 10° S 21:07:55 51° ESE 21:13:26 10° NNE
USA 81 4.0 21:08:29 10° S 21:13:45 87° E 21:19:04 10° N
Cosmos 2112 Rocket 4.4 21:09:28 10° S 21:14:20 41° ESE 21:19:13 10° NNE
ARGOS 4.2 21:13:55 18° ESE 21:17:01 30° ENE 21:21:40 10° N
Cosmos 1743 2.8 21:14:11 10° N 21:18:02 59° E 21:20:24 22° SSE
Cosmos 773 Rocket 4.3 21:12:54 10° SSW 21:18:02 69° WNW 21:23:10 10° NNE
SJ-11-01 4.5 21:13:48 10° S 21:18:26 73° WSW 21:23:09 10° NNW
CZ-3A R/B 2.0 21:14:11 10° SSW 21:19:19 26° SE 21:19:42 26° SE
SL-27 R/B 3.2 21:24:26 28° SE 21:25:29 35° ESE 21:28:51 10° NE
NOSS 2-2 (D) 3.6 21:22:01 10° SW 21:25:56 73° WNW 21:30:22 10° NNE
ASTRO E2 3.4 21:24:23 10° WSW 21:28:02 35° S 21:29:07 29° SSE
Cosmos 1536 Rocket 4.1 21:24:31 10° SSW 21:28:45 57° W 21:33:02 10° N
USA 245 4.2 21:32:15 20° ENE 21:32:15 20° ENE 21:33:57 10° NNE
Cosmos 1437 Rocket 4.4 21:29:58 10° NNE 21:32:39 18° ENE 21:32:58 18° E
PSLV R/B 4.3 21:32:05 10° WNW 21:35:04 39° N 21:37:07 17° ENE
Cosmos 2184 Rocket 4.0 21:30:11 10° N 21:36:34 80° E 21:41:15 19° S
CENTAUR R/B 3.2 21:29:16 10° NNW 21:37:19 79° ENE 21:42:54 24° SE
Cosmos 2074 Rocket 4.0 21:31:31 10° N 21:37:47 85° E 21:42:33 18° S
Cosmos 405 3.8 21:34:50 10° N 21:38:06 33° ENE 21:38:31 32° E
Cosmos 1680 Rocket 3.4 21:32:57 10° SSW 21:38:10 84° ESE 21:43:25 10° NNE
Aureole 1 Rocket 2.2 21:36:14 23° S 21:38:14 67° ESE 21:41:19 10° NNE
Meteor 2-13 Rocket 4.4 21:32:40 10° N 21:38:46 82° E 21:43:05 20° S
Intercosmos 24 4.4 21:36:52 10° N 21:40:32 35° ENE 21:41:05 33° E
MetOp-B 4.1 21:42:24 28° SSE 21:45:18 70° ENE 21:50:38 10° N
Cosmos 1666 2.6 21:47:10 10° N 21:50:55 79° W 21:52:10 40° S
Meteor 2-9 Rocket 4.1 21:47:05 10° N 21:52:33 76° E 21:55:15 32° SSE
SPOT 5 2.6 21:53:00 42° SE 21:54:14 61° ENE 21:58:30 10° N
Meteor 2-4 Rocket 3.8 21:49:08 12° S 21:54:17 82° W 22:00:04 10° N
SPOT 1/Viking Rocket 3.9 21:56:00 35° ESE 21:57:41 49° ENE 22:02:39 10° N
SL-08 RB Rocket 3.8 21:59:02 44° SE 22:00:07 58° ENE 22:04:31 10° N
Cosmos 1025 Rocket 2.9 21:59:36 39° S 22:01:09 86° E 22:05:26 10° N
ASTEX 1 4.1 22:02:58 20° SSW 22:06:10 51° W 22:10:57 10° NNW
Cosmos 1833 Rocket 4.2 22:10:08 20° E 22:10:08 20° E 22:12:55 10° NE
Nadezhda 1 Rocket 4.4 22:05:16 11° SSW 22:11:20 63° W 22:17:41 10° N
Terra 2.9 22:11:45 29° E 22:12:13 30° ENE 22:16:20 10° N
Tiangong 2 2.5 22:11:24 10° WSW 22:13:18 33° WSW 22:13:18 33° WSW
Cosmos 1515 4.1 22:18:34 52° NE 22:18:34 52° NE 22:21:43 10° NNE
GENESIS II 4.1 22:15:43 10° NNW 22:19:37 81° NE 22:19:37 81° NE
ISS-0.722:25:09NE22:25:09NE22:16:18WSW
Cosmos 2154 Rocket 4.0 22:13:39 10° N 22:20:02 87° W 22:22:44 38° S
H-2A R/B 3.0 22:22:16 36° ENE 22:22:19 36° ENE 22:26:28 10° N
Cosmos 1371 Rocket 4.0 22:17:03 10° NNW 22:22:24 72° ENE 22:23:26 56° SE
SL-8 Rocket 4.4 22:20:03 10° N 22:26:02 46° E 22:27:14 41° ESE
Meteor 1-15 Rocket 4.2 22:23:57 10° NNW 22:29:33 75° W 22:31:13 46° S
Cosmos 1980 Rocket 4.3 22:34:53 10° NNE 22:37:53 14° NE 22:39:36 13° ENE
OAO 2 Rocket 3.4 22:39:09 10° W 22:43:25 60° SW 22:43:25 60° SW
H-2A R/B 2.1 22:45:20 57° SW 22:45:58 63° W 22:50:55 10° NNW
Cosmos 2341 Rocket 4.1 22:40:24 10° N 22:46:43 74° W 22:48:37 47° SSW
Cosmos 967 Rocket 4.4 22:46:42 28° SW 22:50:10 80° WNW 22:56:28 10° NNE
DMSP B5D2-2 4.2 22:49:26 10° N 22:54:43 70° WNW 22:55:46 55° SW
ARGOS 4.5 22:55:25 26° SW 22:57:08 32° W 23:01:57 10° NW
Cosmos 1959 Rocket 4.4 22:51:03 10° N 22:57:24 69° E 22:58:11 63° SE
CZ-4 R/B 4.1 22:52:24 10° NNE 22:56:52 63° ENE 22:56:52 63° ENE
Cosmos 1892 Rocket 4.5 22:58:50 42° W 22:59:16 43° W 23:03:30 10° N
IGS 5A 4.1 23:02:30 55° NNW 23:02:30 55° NNW 23:05:47 10° NNW
Cosmos 2218 Rocket 3.8 22:58:22 10° N 23:04:32 79° E 23:05:06 72° SE
USA 267 3.1 22:58:13 10° NE 23:04:46 77° SE 23:06:49 47° SSW
Cosmos 2278 3.6 22:59:52 10° NNW 23:05:36 80° ENE 23:05:47 78° E
Cosmos 2082 Rocket 2.1 23:06:38 76° E 23:06:38 76° E 23:12:06 10° NNE
Cosmos 1624 Rocket 4.4 23:01:35 10° NNW 23:06:43 53° WSW 23:06:55 53° WSW
deb Chang Zheng 4 4.1 23:02:27 10° N 23:06:02 57° NNW 23:06:02 57° NNW
Cosmos 2228 3.7 23:04:03 10° NNW 23:07:32 52° NW 23:07:32 52° NW
SeaSat 1 4.2 23:09:30 21° ENE 23:09:59 21° NE 23:13:38 10° N
Cosmos 921 Rocket 3.8 23:10:50 10° NNW 23:14:23 49° NW 23:14:23 49° NW
Cosmos 2369 3.7 23:18:07 10° NNW 23:23:40 73° W 23:23:40 73° W
Cosmos 2056 Rocket 4.5 23:20:29 10° NW 23:24:59 37° W 23:24:59 37° W
CZ-2C R/B 4.2 23:23:16 10° NE 23:26:29 25° ENE 23:26:29 25° ENE
Nadezhda 3 Rocket 4.1 23:32:43 61° E 23:32:43 61° E 23:38:42 10° NNE
SL-16 R/B 4.4 23:31:23 10° NNE 23:34:30 15° NE 23:36:00 14° ENE
Cosmos 1697 Rocket 2.9 23:30:34 10° NNW 23:35:40 65° NNE 23:35:40 65° NNE
CZ-4B R/B 4.0 23:35:03 10° N 23:39:47 54° WNW 23:39:47 54° WNW
Meteor 2-14 Rocket 4.4 23:40:29 10° NNW 23:46:23 71° W 23:46:23 71° W
Cosmos 1420 Rocket 4.4 23:42:23 10° NNW 23:46:39 59° N 23:46:39 59° N
Terra 3.6 23:50:38 24° W 23:50:38 24° W 23:53:50 10° NW
Meteor 1-21 4.4 23:51:56 67° NW 23:51:56 67° NW 23:57:12 10° N
Cosmos 1833 Rocket 3.4 23:51:47 45° W 23:52:18 46° WNW 23:57:43 10° N
ISS -0.3 23:57:34 12° N 23:57:34 12° N 23:58:27 10° N
